This demonstration page uses our WeatherBlox Daily Observations layout. Learn more.

Hourly Observations for December 1, 2019

Temp ( °F °C ) Dew Point ( °F °C ) Humidity (%) Winds ( mph kmh ) Pressure ( in mb ) Visibility ( mi km ) Precip ( " mm )
12:15 am 00:15 Cloudy 41 5 34 1 76 76 S 5 7 30 1016 10 16.09344 0 0
12:35 am 00:35 Cloudy 41 5 34 1 76 76 S 5 7 30 1016 10 16.09344 0 0
12:55 am 00:55 Cloudy 41 5 32 0 70 70 S 6 9 30 1016 10 16.09344 0 0
1:15 am 01:15 Cloudy 41 5 32 0 70 70 SSW 8 13 30 1016 10 16.09344 0 0
1:35 am 01:35 Cloudy 39 4 34 1 81 81 SSW 10 17 30 1016 10 16.09344 0 0
1:55 am 01:55 Cloudy 39 4 34 1 81 81 S 9 15 30 1016 7 11.265408 0 0
2:15 am 02:15 Cloudy 37 3 34 1 87 87 SE 7 11 29.97 1015 10 16.09344 0 0
2:35 am 02:35 Cloudy 37 3 34 1 87 87 SSE 7 11 29.97 1015 10 16.09344 0 0
2:55 am 02:55 Cloudy 37 3 34 1 87 87 SE 7 11 29.94 1014 10 16.09344 0 0
3:15 am 03:15 Cloudy 37 3 36 2 93 93 SE 8 13 29.94 1014 7 11.265408 0 0
3:35 am 03:35 Cloudy 37 3 36 2 93 93 SE 7 11 29.94 1014 5 8.04672 0 0
3:55 am 03:55 Cloudy 37 3 36 2 93 93 SE 7 11 29.91 1013 5 8.04672 0 0
4:15 am 04:15 Cloudy 37 3 36 2 93 93 ESE 5 7 29.91 1013 5 8.04672 0 0
4:35 am 04:35 Cloudy 37 3 36 2 93 93 SE 3 6 29.91 1013 2.5 4.02336 0 0
4:55 am 04:55 Cloudy 36 2 36 2 100 100 SE 5 7 29.91 1013 2.5 4.02336 0.01 0.254
5:15 am 05:15 Cloudy 36 2 36 2 100 100 SE 3 6 29.91 1013 4 6.437376 0 0
5:35 am 05:35 Cloudy 36 2 36 2 100 100 SE 5 7 29.91 1013 2.5 4.02336 0.01 0.254
5:55 am 05:55 Cloudy 36 2 36 2 100 100 ESE 7 11 29.88 1012 4 6.437376 0.02 0.508
6:15 am 06:15 Cloudy 36 2 36 2 100 100 ESE 7 11 29.85 1011 3 4.828032 0.01 0.254
6:35 am 06:35 Cloudy 36 2 36 2 100 100 SE 5 7 29.85 1011 4 6.437376 0.02 0.508
6:55 am 06:55 Cloudy 36 2 36 2 100 100 ESE 6 9 29.85 1011 5 8.04672 0.02 0.508
7:15 am 07:15 Cloudy 36 2 36 2 100 100 SE 9 15 29.85 1011 4 6.437376 0 0
7:35 am 07:35 Cloudy 36 2 36 2 100 100 SE 8 13 29.85 1011 2 3.218688 0 0
7:55 am 07:55 Cloudy 36 2 36 2 100 100 SE 8 13 29.85 1011 2 3.218688 0.01 0.254
8:15 am 08:15 Cloudy 36 2 36 2 100 100 SE 8 13 29.85 1011 1.25 2.01168 0.01 0.254
8:35 am 08:35 Cloudy 36 2 36 2 100 100 ESE 7 11 29.83 1010 1.25 2.01168 0.02 0.508
8:55 am 08:55 Cloudy 36 2 36 2 100 100 ESE 5 7 29.83 1010 1.75 2.816352 0.02 0.508
9:15 am 09:15 Cloudy 36 2 36 2 100 100 ESE 6 9 29.83 1010 1.75 2.816352 0.01 0.254
9:35 am 09:35 Cloudy 36 2 36 2 100 100 ESE 7 11 29.8 1009 1.75 2.816352 0.01 0.254
9:55 am 09:55 Cloudy 36 2 36 2 100 100 Calm 29.83 1010 1.75 2.816352 0.03 0.762
10:15 am 10:15 Cloudy 37 3 37 3 100 100 E 8 13 29.83 1010 1.25 2.01168 0.04 1.016
10:35 am 10:35 Cloudy 36 2 36 2 100 100 ESE 12 19 29.77 1008 2 3.218688 0.09 2.286
10:55 am 10:55 Cloudy 37 3 37 3 100 100 ESE 14 22 29.68 1005 2 3.218688 0.14 3.556
11:15 am 11:15 Cloudy 37 3 37 3 100 100 ESE 9 15 29.71 1006 7 11.265408 0.01 0.254
11:35 am 11:35 Cloudy 37 3 37 3 100 100 SE 9 15 29.68 1005 10 16.09344 0.01 0.254
11:55 am 11:55 Cloudy 37 3 37 3 100 100 ESE 5 7 29.68 1005 4 6.437376 0.02 0.508
12:15 pm 12:15 Cloudy 37 3 37 3 100 100 SE 7 11 29.68 1005 1.25 2.01168 0.04 1.016
12:35 pm 12:35 Cloudy 37 3 37 3 100 100 Calm 29.65 1004 3 4.828032 0.07 1.778
12:55 pm 12:55 Cloudy 37 3 37 3 100 100 NE 3 6 29.65 1004 1.25 2.01168 0.14 3.556
1:15 pm 13:15 Cloudy 37 3 37 3 100 100 NE 5 7 29.62 1003 2.5 4.02336 0.02 0.508
1:35 pm 13:35 Cloudy 37 3 37 3 100 100 NE 5 7 29.59 1002 2.5 4.02336 0.03 0.762
1:55 pm 13:55 Cloudy 39 4 39 4 100 100 NNE 5 7 29.59 1002 2.5 4.02336 0.04 1.016
2:15 pm 14:15 Cloudy 39 4 39 4 100 100 NE 6 9 29.56 1001 3 4.828032 0 0
2:35 pm 14:35 Cloudy 39 4 39 4 100 100 NE 7 11 29.56 1001 2 3.218688 0.01 0.254
2:55 pm 14:55 Cloudy 39 4 39 4 100 100 NE 9 15 29.56 1001 2 3.218688 0.01 0.254
3:15 pm 15:15 Cloudy 37 3 37 3 100 100 ENE 9 15 29.56 1001 1.75 2.816352 0 0
3:35 pm 15:35 Cloudy 37 3 37 3 100 100 NE 6 9 29.56 1001 2 3.218688 0 0
3:55 pm 15:55 Cloudy 37 3 37 3 100 100 NNE 3 6 29.56 1001 3 4.828032 0.01 0.254
4:15 pm 16:15 Cloudy 37 3 37 3 100 100 NNE 6 9 29.56 1001 2.5 4.02336 0 0
4:35 pm 16:35 Cloudy 36 2 36 2 100 100 NNE 10 17 29.56 1001 2.5 4.02336 0 0
4:55 pm 16:55 Cloudy 36 2 36 2 100 100 N 5 7 29.56 1001 3 4.828032 0 0
5:15 pm 17:15 Cloudy 36 2 36 2 100 100 N 5 7 29.56 1001 4 6.437376 0.01 0.254
5:35 pm 17:35 Cloudy 36 2 36 2 100 100 NNE 5 7 29.53 1000 7 11.265408 0.01 0.254
5:55 pm 17:55 Cloudy 36 2 36 2 100 100 NNE 7 11 29.56 1001 7 11.265408 0.01 0.254
6:15 pm 18:15 Cloudy 36 2 36 2 100 100 NNE 5 7 29.56 1001 5 8.04672 0 0
6:35 pm 18:35 Cloudy 36 2 36 2 100 100 NNE 9 15 29.56 1001 5 8.04672 0 0
6:55 pm 18:55 Cloudy 36 2 36 2 100 100 NNE 6 9 29.56 1001 5 8.04672 0 0
7:15 pm 19:15 Cloudy 36 2 36 2 100 100 NNE 6 9 29.56 1001 7 11.265408 0 0
7:35 pm 19:35 Cloudy 36 2 36 2 100 100 N 9 15 29.56 1001 7 11.265408 0 0
7:55 pm 19:55 Cloudy 34 1 34 1 100 100 NNE 8 13 29.56 1001 10 16.09344 0 0
8:15 pm 20:15 Cloudy 34 1 34 1 100 100 NE 8 13 29.56 1001 10 16.09344 0 0
8:35 pm 20:35 Cloudy 34 1 34 1 100 100 Calm 29.56 1001 10 16.09344 0 0
8:55 pm 20:55 Cloudy 34 1 34 1 100 100 NNW 7 11 29.56 1001 10 16.09344 0 0
9:15 pm 21:15 Cloudy 36 2 36 2 100 100 NNW 8 13 29.56 1001 7 11.265408 0 0
9:35 pm 21:35 Cloudy 36 2 36 2 100 100 N 7 11 29.59 1002 7 11.265408 0 0
9:55 pm 21:55 Cloudy 36 2 36 2 100 100 N 12 19 29.56 1001 10 16.09344 0 0
10:15 pm 22:15 Cloudy 34 1 34 1 100 100 N 10 17 29.56 1001 10 16.09344 0 0
10:35 pm 22:35 Cloudy 34 1 34 1 100 100 N 3 6 29.59 1002 10 16.09344 0 0
10:55 pm 22:55 Cloudy 34 1 34 1 100 100 Calm 29.59 1002 10 16.09344 0 0
11:15 pm 23:15 Cloudy 34 1 34 1 100 100 N 6 9 29.59 1002 10 16.09344 0 0
11:35 pm 23:35 Cloudy 34 1 34 1 100 100 N 7 11 29.59 1002 10 16.09344 0 0
11:55 pm 23:55 Partly Cloudy 34 1 34 1 100 100 NNW 9 15 29.62 1003 10 16.09344 0 0

Powered by AerisWeather